Tracking 20093 objects as of 16-Dec-2019
HD Live streaming from Space Station
objects crossing your sky now

FENGYUN 1C DEB

Track FENGYUN 1C DEB now!
10-day predictions


NORAD ID: 37402
Int'l Code: 1999-025EFU
Perigee: 699.7 km
Apogee: 734.2 km
Inclination: 99.4 °
Period: 99.0 minutes
Semi major axis: 7087 km
RCS: 0.0118 m2 (small)
Launch date: May 10, 1999
Source: People's Republic of China (PRC)
Launch site: Taiyaun Space Center, China (TSC)

Note: This is SATELLITE DEBRIS
aabbcc
Your satellite tracking list
Your tracking list is empty




NASA's NSSDC Master Catalog

Two Line Element Set (TLE):
1 37402U 99025EFU 19349.05438069 +.00002081 +00000-0 +49599-3 0  9992
2 37402 099.3542 084.1041 0024359 346.2682 013.7846 14.54852149322809
Source of the keplerian elements: AFSPC